SCP
-0 -0 -0 -0 -0 -0 0 -0 -0 0 0 0 0 0 0 0 0 0 -0 0 -0 0 0 0 0 0 0 0 -0 -0 -0 0 0 0 0 0 -0 0 0 0 0 0 -0 -0
-0 -0 -0 -0 -0 -0 0 0 0 -0 -0 0 0 0 -0 0 0 0 0 0 0 0 0 0 0 0 0 0 0 -0 -0 0 0 0 0 0 0 0 0 0 0 0 0 -0
-0 -0 -0 -0 -0 -0 0 0 0 -0 -0 0 0 0 -0 -0 0 0 0 0 0 0 0 0 0 0 0 0 0 0 0 0 0 0 0 0 0 0 -0 0 0 0 0 -0
-0 -0 -0 -0 -0 -0 0 0 0 0 0 0 0 0 -0 -0 0 0 0 0 0 0 0 0 0 0 0 0 -0 0 0 0 0 0 0 0 0 0 0 0 -0 0 -0 -0
-0 -0 -0 -0 -0 -0 0 0 0 0 0 0 0 -0 -0 0 0 -0 -0 -0 -0 0 0 0 0 0 0 0 0 0 0 0 0 0 0 0 0 0 0 0 0 0 -0 -0
-0 -0 -0 -0 -0 -0 0 0 0 0 -0 -0 -0 0 0 0 -0 0 0 -0 -0 -0 0 0 0 0 0 0 0 0 0 0 0 0 0 0 0 0 0 0 0 0 0 -0
-0 -0 -0 -0 -0 0 -0 0 0 0 -0 0 0 -0 -0 -0 -0 0 0 0 0 -0 0 -0 0 0 0 0 0 0 0 0 0 0 0 0 0 0 0 0 0 0 0 0
0 0 0 0 0 0 -0 0 0 0 0 0 0 0 0 0 -0 -0 0 0 -0 -0 0 0 0 0 0 0 0 0 0 0 0 0 0 0 0 0 0 0 0 0 0 0
0 0 0 0 0 0 0 0 0 0 0 0 0 0 0 0 0 -0 0 0 0 0 0 0 0 0 0 0 0 0 0 0 0 0 0 0 0 0 0 0 0 0 0 0
0 0 0 0 0 0 0 0 0 0 0 0 0 0 0 0 0 0 0 -0 -0 0 0 0 0 0 0 0 0 0 0 0 0 0 0 0 0 0 0 0 0 0 0 0
0 0 0 0 0 0 0 0 0 0 0 0 0 0 0 0 0 0 0 0 0 0 0 0 0 0 0 0 0 0 0 0 0 0 0 0 0 0 0 0 0 0 0 0
0 0 0 0 0 0 0 0 0 0 0 0 0 0 0 0 0 0 0 0 0 0 0 0 0 0 0 0 0 0 0 0 0 0 0 0 0 0 0 0 0 0 0 0
0 0 0 0 0 0 0 0 0 0 0 0 0 0 0 0 0 0 0 0 0 0 0 0 0 0 0 0 0 0 0 0 0 0 0 0 0 0 0 0 0 0 0 0
0 0 0 0 0 0 0 0 0 0 0 0 0 0 0 0 0 0 0 0 0 0 0 0 0 0 0 0 0 0 0 0 0 0 0 0 0 0 0 0 0 0 0 0
0 0 0 0 0 0 0 0 0 0 0 0 0 0 0 0 0 0 0 0 0 0 0 0 0 0 0 0 0 0 0 0 0 0 0 0 0 0 0 0 0 0 0 0
0 0 0 0 0 0 0 0 0 0 0 0 0 0 0 0 0 0 0 0 0 0 0 0 0 0 0 0 0 0 0 0 0 0 0 0 0 0 0 0 0 0 0 0
0 0 0 0 0 0 0 0 0 0 0 0 0 0 0 0 0 0 0 0 0 0 0 0 0 0 0 0 0 0 0 -0 0 0 0 0 0 0 0 0 0 0 0 0
0 0 0 0 0 0 0 0 0 0 0 0 0 0 0 0 0 0 0 0 0 0 0 0 0 0 0 0 0 0 0 -0 0 -0 -0 -0 0 0 0 0 0 0 0 0
0 0 0 0 0 0 0 0 0 0 0 0 0 0 0 0 0 0 0 0 0 0 0 0 0 0 0 -0 0 0 0 0 0 0 0 0 0 0 0 0 0 0 0 0
0 0 0 0 0 0 0 0 0 0 0 0 0 0 0 0 0 0 0 0 0 0 0 0 0 0 0 0 0 0 0 0 0 0 0 0 0 0 0 0 0 0 0 0
0 0 0 0 0 0 0 0 0 0 0 0 0 0 0 0 0 0 0 0 0 0 0 0 0 0 0 0 0 0 0 0 0 0 0 0 0 0 0 0 0 0 0 0
0 0 0 0 0 0 0 0 0 0 0 0 0 0 0 0 0 0 0 0 0 0 0 0 0 0 0 0 0 0 0 0 0 0 0 0 0 0 0 0 0 0 0 0
0 0 0 0 0 0 0 0 0 0 0 0 0 0 0 0 0 0 0 0 0 0 0 0 0 0 0 0 0 0 0 0 0 0 0 0 0 0 0 0 0 0 0 0
0 0 0 0 0 0 0 0 0 0 0 0 0 0 0 0 0 0 0 0 0 0 0 0 0 0 0 0 0 0 0 0 0 0 0 0 0 0 0 0 0 0 0 0
0 0 0 0 0 0 0 0 0 0 0 0 0 0 0 0 0 0 0 0 0 0 0 0 0 0 0 0 0 0 0 0 0 0 0 0 0 0 0 0 0 0 0 0
0 0 0 0 0 0 0 0 0 0 0 0 0 0 0 0 0 0 0 0 0 0 0 0 0 0 0 0 0 0 0 0 0 0 0 0 0 0 0 0 0 0 0 0
0 0 0 0 0 0 0 0 0 0 0 0 0 0 0 0 0 0 0 0 0 0 0 0 0 0 0 0 0 0 0 0 0 0 0 0 0 0 0 0 0 0 0 0
Wind_Speed_500mb
64 66 68 73 73 53 25 11 7 9 14 9 6 4 5 18 11 13 12 8 5 4 6 6 4 1 10 17 19 13 5 9 4 3 9 2 5 6 9 10 8 1 6 10
60 62 65 66 70 59 26 8 7 10 20 7 8 12 9 12 16 12 10 11 9 7 6 9 4 6 11 28 7 7 10 5 6 14 13 8 11 6 8 11 8 7 9 10
55 58 60 61 62 56 19 6 5 8 9 10 4 9 10 8 22 12 14 10 8 11 16 14 7 13 8 23 11 16 10 6 11 11 11 4 7 6 9 6 8 11 11 6
50 53 55 58 56 51 13 11 5 6 7 10 6 2 4 7 9 12 22 15 11 6 12 11 13 11 13 8 19 10 8 6 1 4 10 6 5 7 4 7 8 10 10 16
43 47 50 52 53 45 41 11 10 7 11 11 7 13 12 10 10 6 8 8 7 13 8 7 4 5 3 2 14 10 10 2 2 7 15 10 5 12 12 6 10 8 10 1
38 39 42 45 47 46 25 26 14 7 13 10 6 5 8 11 7 4 9 3 5 5 6 13 18 18 15 6 4 6 7 6 6 6 11 10 11 10 5 3 4 10 11 10
35 32 33 34 36 37 32 37 17 10 4 4 3 10 6 9 10 2 10 15 5 3 22 20 15 9 10 10 7 6 6 7 5 4 9 1 12 12 9 5 4 2 7 8
34 30 26 26 24 24 19 24 21 10 3 4 6 19 8 10 10 9 5 13 14 18 7 8 10 10 6 6 13 6 4 10 6 6 3 10 10 9 2 1 4 4 10 14
32 31 26 22 21 16 15 12 16 9 4 6 6 6 8 3 8 13 7 20 17 16 9 8 5 2 4 4 5 11 11 11 8 5 5 7 11 6 8 2 5 11 21 26
34 31 29 25 21 18 14 10 9 8 8 5 2 2 4 3 3 2 9 22 15 23 6 6 4 4 3 3 3 2 5 6 8 4 4 11 11 11 3 12 13 20 34 42
35 33 30 27 24 21 15 14 14 8 9 26 33 14 9 3 4 4 9 9 8 9 8 4 2 2 2 4 3 2 5 8 4 4 6 6 3 5 8 9 4 20 32 41
35 34 32 28 26 24 20 15 15 18 19 19 21 28 42 43 40 28 6 2 4 3 7 0 3 2 3 3 0 6 3 9 7 11 10 8 9 15 9 10 24 21 26 27
33 32 30 30 28 27 24 21 18 18 18 35 39 26 13 20 33 33 14 9 7 5 3 8 4 2 6 2 5 2 5 6 5 5 5 7 8 20 22 20 21 17 17 17
27 27 27 27 26 28 26 23 19 15 9 9 13 17 17 17 7 28 39 13 9 3 1 4 4 3 9 6 5 5 7 5 7 4 9 2 9 16 21 22 22 22 21 20
15 20 21 20 20 25 27 26 24 23 17 7 21 29 23 26 17 19 29 34 30 15 4 4 5 6 5 2 3 6 14 12 9 10 10 8 16 23 28 31 30 25 20 17
17 17 18 20 18 16 17 10 27 33 32 9 7 12 20 23 21 21 29 29 26 16 8 8 6 7 6 5 6 15 20 19 17 9 4 9 24 20 34 35 27 17 11 11
20 19 21 21 19 19 22 7 14 23 26 8 11 13 12 21 26 32 30 29 22 17 11 9 6 9 9 5 7 12 18 26 28 15 11 18 20 25 41 34 25 20 10 12
26 27 17 18 17 20 28 28 24 21 19 10 5 9 10 4 12 17 26 27 27 16 13 10 8 8 3 6 26 28 34 41 43 53 50 41 28 19 32 36 37 30 26 33
26 27 22 14 11 10 15 26 34 28 22 8 10 6 6 5 2 9 14 18 5 10 9 11 16 3 8 16 23 22 18 12 16 11 13 29 35 26 37 42 41 38 37 41
28 23 10 9 11 17 12 13 14 19 19 18 8 10 6 5 5 3 6 5 7 7 11 21 7 8 6 12 21 28 23 21 17 14 11 7 22 25 35 47 46 44 40 42
11 14 10 9 8 13 11 12 12 17 10 20 23 32 6 4 3 3 4 4 3 7 10 13 8 6 6 22 16 11 8 23 28 31 35 29 24 22 36 43 46 44 47 47
11 10 6 8 9 7 5 6 6 7 6 13 18 45 51 9 7 2 3 4 3 11 13 8 8 2 15 26 26 22 20 19 12 17 34 41 47 40 33 38 39 43 55 54
15 10 9 8 7 5 10 12 7 5 9 17 24 10 16 23 7 4 2 6 9 17 6 6 4 5 17 25 28 26 23 23 25 17 9 10 23 35 44 46 40 35 46 57
9 9 7 8 7 8 9 7 2 4 5 19 17 13 10 11 9 10 8 9 1 6 8 7 4 9 20 25 30 31 32 29 29 30 27 23 20 16 40 48 46 39 47 60
8 9 8 11 16 11 10 14 17 9 2 24 13 7 8 5 6 8 5 6 9 4 5 4 5 16 26 28 31 34 35 34 31 31 28 26 33 29 25 40 47 40 42 61
8 12 6 7 4 8 12 23 27 14 11 11 5 5 1 7 3 6 12 9 6 5 5 1 5 18 23 29 33 33 31 34 34 28 30 32 38 43 36 35 52 47 45 62
9 7 12 15 16 16 11 16 10 11 18 5 7 9 5 1 4 3 5 6 8 13 3 7 16 23 27 30 35 37 34 31 31 28 22 25 32 37 42 42 56 55 51 61
Wind_Direction_500mb
353 359 1 2 0 9 24 41 50 7 358 22 34 13 329 339 338 46 52 94 58 196 150 92 132 1 231 333 157 153 189 143 257 283 298 279 146 98 130 119 213 100 138 271
350 356 0 3 2 3 10 47 47 14 351 58 345 325 347 18 23 24 26 23 43 44 56 87 59 15 335 9 80 136 188 19 38 353 347 14 59 62 101 111 102 191 135 255
347 352 359 2 4 2 16 16 35 16 61 66 84 16 359 352 10 48 37 19 53 44 27 15 55 10 333 1 42 69 107 91 141 180 214 236 315 132 193 96 112 166 226 275
342 349 356 1 6 6 15 38 61 12 342 355 37 82 337 341 22 23 29 8 49 54 45 16 12 359 337 355 18 41 91 92 37 265 275 231 291 11 164 169 170 141 227 198
335 344 352 359 5 14 36 50 22 10 355 320 10 10 3 14 338 61 342 94 5 27 78 141 287 13 350 318 340 43 354 125 65 353 355 8 100 53 70 53 123 84 105 359
325 336 346 356 2 16 34 28 8 360 358 356 54 334 318 332 309 83 61 174 90 53 317 290 271 270 263 263 358 5 55 102 59 289 352 3 6 356 301 200 174 155 153 220
313 323 336 350 1 12 23 16 11 2 323 58 32 340 320 331 357 207 3 47 97 241 306 287 279 271 256 222 244 181 120 87 59 236 19 77 242 327 202 108 81 90 61 108
300 308 319 330 347 360 1 13 12 353 314 305 352 347 343 327 1 22 330 14 340 332 357 45 19 346 25 51 40 168 108 115 72 116 164 293 323 339 93 236 239 13 132 128
287 293 300 305 316 334 339 334 359 348 348 252 321 324 347 348 332 348 340 359 359 8 75 63 70 114 306 353 72 73 69 74 112 106 121 186 243 296 2 118 311 178 163 152
273 278 284 285 290 301 315 293 323 324 292 279 237 299 271 347 13 217 321 341 347 8 40 70 68 316 261 57 42 162 44 21 126 134 179 285 256 306 31 87 237 173 173 167
265 266 272 272 271 276 282 281 275 291 274 277 275 259 212 296 288 127 327 2 354 23 56 100 229 89 321 33 305 111 144 120 161 91 79 266 337 22 150 218 152 175 169 176
260 261 263 263 258 261 262 264 256 277 268 267 273 256 268 277 265 263 278 234 264 191 87 85 111 47 37 156 57 342 63 171 185 169 214 264 296 257 248 139 139 145 163 185
257 254 257 257 253 249 249 251 256 278 283 291 271 272 246 258 247 239 216 226 184 138 93 147 150 89 123 114 262 329 337 160 121 72 283 322 58 136 135 132 123 132 143 148
261 253 254 256 249 243 240 241 242 254 266 274 274 257 233 218 261 225 214 171 160 349 187 117 124 162 187 206 217 179 212 146 154 276 272 254 207 185 178 170 169 172 184 200
268 252 248 255 255 238 238 236 233 231 228 270 289 296 264 235 247 212 207 221 240 248 187 118 219 182 135 30 56 257 193 181 153 215 192 198 224 213 198 186 184 184 196 214
254 258 257 258 259 247 227 237 236 228 225 266 310 294 266 224 219 211 212 219 221 210 191 193 207 197 184 148 214 261 226 220 206 158 197 282 263 245 209 202 197 207 232 256
238 245 247 244 246 229 201 201 182 188 187 230 283 280 234 239 220 215 211 201 203 207 181 200 190 185 197 125 213 254 233 208 202 231 284 290 283 213 205 202 205 197 208 198
237 237 248 237 237 237 227 214 187 180 189 223 240 265 310 199 208 185 190 192 194 195 183 162 175 154 185 253 246 259 257 252 253 265 272 266 268 233 197 198 198 193 191 185
236 244 263 279 235 217 219 217 219 213 212 231 195 199 227 359 30 179 166 169 128 179 166 202 154 167 217 231 256 274 294 284 302 296 258 245 233 223 196 196 197 202 198 197
231 242 246 231 202 201 195 200 207 208 213 221 237 209 255 346 41 96 155 176 153 160 224 149 155 240 233 331 301 285 289 285 312 268 241 216 227 235 221 214 214 215 219 214
230 199 227 226 212 197 201 211 211 191 209 193 196 205 202 228 93 211 184 181 160 160 220 156 192 255 345 9 12 18 302 287 285 262 258 264 273 277 243 224 218 225 223 216
204 194 222 212 206 195 208 228 219 219 235 182 186 199 217 229 200 60 219 206 92 228 142 136 187 149 0 13 22 25 24 12 355 254 249 252 253 256 257 229 228 233 224 219
203 228 206 196 194 215 208 187 231 204 190 190 185 176 187 202 200 201 175 218 228 123 154 187 100 5 17 23 27 29 21 10 7 11 15 316 262 239 238 236 242 241 226 219
221 216 200 209 198 237 203 206 279 260 193 186 165 163 157 157 143 199 197 223 217 231 196 126 192 4 7 12 20 22 14 3 359 355 349 332 333 293 237 239 236 242 235 218
236 220 216 221 246 262 271 279 269 251 221 157 155 126 161 153 196 190 177 166 209 29 102 127 42 10 3 0 7 12 14 7 356 351 340 315 301 294 261 233 233 238 235 216
237 234 265 229 262 280 253 255 261 248 208 157 124 119 206 217 219 203 199 194 98 115 167 114 355 7 9 1 360 1 356 1 1 351 344 327 298 280 269 242 230 227 225 213
254 237 251 265 283 273 285 315 289 211 172 232 161 162 201 29 89 216 45 85 133 136 54 345 344 346 351 352 349 349 345 342 349 344 327 321 331 288 248 231 225 219 221 219
Wind_Speed_850mb
64 66 68 73 73 53 25 11 7 9 14 9 6 4 5 18 11 13 12 8 5 4 6 6 4 1 10 17 19 13 5 9 4 3 9 2 5 6 9 10 8 1 6 10
60 62 65 66 70 59 26 8 7 10 20 7 8 12 9 12 16 12 10 11 9 7 6 9 4 6 11 28 7 7 10 5 6 14 13 8 11 6 8 11 8 7 9 10
55 58 60 61 62 56 19 6 5 8 9 10 4 9 10 8 22 12 14 10 8 11 16 14 7 13 8 23 11 16 10 6 11 11 11 4 7 6 9 6 8 11 11 6
50 53 55 58 56 51 13 11 5 6 7 10 6 2 4 7 9 12 22 15 11 6 12 11 13 11 13 8 19 10 8 6 1 4 10 6 5 7 4 7 8 10 10 16
43 47 50 52 53 45 41 11 10 7 11 11 7 13 12 10 10 6 8 8 7 13 8 7 4 5 3 2 14 10 10 2 2 7 15 10 5 12 12 6 10 8 10 1
38 39 42 45 47 46 25 26 14 7 13 10 6 5 8 11 7 4 9 3 5 5 6 13 18 18 15 6 4 6 7 6 6 6 11 10 11 10 5 3 4 10 11 10
35 32 33 34 36 37 32 37 17 10 4 4 3 10 6 9 10 2 10 15 5 3 22 20 15 9 10 10 7 6 6 7 5 4 9 1 12 12 9 5 4 2 7 8
34 30 26 26 24 24 19 24 21 10 3 4 6 19 8 10 10 9 5 13 14 18 7 8 10 10 6 6 13 6 4 10 6 6 3 10 10 9 2 1 4 4 10 14
32 31 26 22 21 16 15 12 16 9 4 6 6 6 8 3 8 13 7 20 17 16 9 8 5 2 4 4 5 11 11 11 8 5 5 7 11 6 8 2 5 11 21 26
34 31 29 25 21 18 14 10 9 8 8 5 2 2 4 3 3 2 9 22 15 23 6 6 4 4 3 3 3 2 5 6 8 4 4 11 11 11 3 12 13 20 34 42
35 33 30 27 24 21 15 14 14 8 9 26 33 14 9 3 4 4 9 9 8 9 8 4 2 2 2 4 3 2 5 8 4 4 6 6 3 5 8 9 4 20 32 41
35 34 32 28 26 24 20 15 15 18 19 19 21 28 42 43 40 28 6 2 4 3 7 0 3 2 3 3 0 6 3 9 7 11 10 8 9 15 9 10 24 21 26 27
33 32 30 30 28 27 24 21 18 18 18 35 39 26 13 20 33 33 14 9 7 5 3 8 4 2 6 2 5 2 5 6 5 5 5 7 8 20 22 20 21 17 17 17
27 27 27 27 26 28 26 23 19 15 9 9 13 17 17 17 7 28 39 13 9 3 1 4 4 3 9 6 5 5 7 5 7 4 9 2 9 16 21 22 22 22 21 20
15 20 21 20 20 25 27 26 24 23 17 7 21 29 23 26 17 19 29 34 30 15 4 4 5 6 5 2 3 6 14 12 9 10 10 8 16 23 28 31 30 25 20 17
17 17 18 20 18 16 17 10 27 33 32 9 7 12 20 23 21 21 29 29 26 16 8 8 6 7 6 5 6 15 20 19 17 9 4 9 24 20 34 35 27 17 11 11
20 19 21 21 19 19 22 7 14 23 26 8 11 13 12 21 26 32 30 29 22 17 11 9 6 9 9 5 7 12 18 26 28 15 11 18 20 25 41 34 25 20 10 12
26 27 17 18 17 20 28 28 24 21 19 10 5 9 10 4 12 17 26 27 27 16 13 10 8 8 3 6 26 28 34 41 43 53 50 41 28 19 32 36 37 30 26 33
26 27 22 14 11 10 15 26 34 28 22 8 10 6 6 5 2 9 14 18 5 10 9 11 16 3 8 16 23 22 18 12 16 11 13 29 35 26 37 42 41 38 37 41
28 23 10 9 11 17 12 13 14 19 19 18 8 10 6 5 5 3 6 5 7 7 11 21 7 8 6 12 21 28 23 21 17 14 11 7 22 25 35 47 46 44 40 42
11 14 10 9 8 13 11 12 12 17 10 20 23 32 6 4 3 3 4 4 3 7 10 13 8 6 6 22 16 11 8 23 28 31 35 29 24 22 36 43 46 44 47 47
11 10 6 8 9 7 5 6 6 7 6 13 18 45 51 9 7 2 3 4 3 11 13 8 8 2 15 26 26 22 20 19 12 17 34 41 47 40 33 38 39 43 55 54
15 10 9 8 7 5 10 12 7 5 9 17 24 10 16 23 7 4 2 6 9 17 6 6 4 5 17 25 28 26 23 23 25 17 9 10 23 35 44 46 40 35 46 57
9 9 7 8 7 8 9 7 2 4 5 19 17 13 10 11 9 10 8 9 1 6 8 7 4 9 20 25 30 31 32 29 29 30 27 23 20 16 40 48 46 39 47 60
8 9 8 11 16 11 10 14 17 9 2 24 13 7 8 5 6 8 5 6 9 4 5 4 5 16 26 28 31 34 35 34 31 31 28 26 33 29 25 40 47 40 42 61
8 12 6 7 4 8 12 23 27 14 11 11 5 5 1 7 3 6 12 9 6 5 5 1 5 18 23 29 33 33 31 34 34 28 30 32 38 43 36 35 52 47 45 62
9 7 12 15 16 16 11 16 10 11 18 5 7 9 5 1 4 3 5 6 8 13 3 7 16 23 27 30 35 37 34 31 31 28 22 25 32 37 42 42 56 55 51 61
Wind_Direction_850mb
353 359 1 2 0 9 24 41 50 7 358 22 34 13 329 339 338 46 52 94 58 196 150 92 132 1 231 333 157 153 189 143 257 283 298 279 146 98 130 119 213 100 138 271
350 356 0 3 2 3 10 47 47 14 351 58 345 325 347 18 23 24 26 23 43 44 56 87 59 15 335 9 80 136 188 19 38 353 347 14 59 62 101 111 102 191 135 255
347 352 359 2 4 2 16 16 35 16 61 66 84 16 359 352 10 48 37 19 53 44 27 15 55 10 333 1 42 69 107 91 141 180 214 236 315 132 193 96 112 166 226 275
342 349 356 1 6 6 15 38 61 12 342 355 37 82 337 341 22 23 29 8 49 54 45 16 12 359 337 355 18 41 91 92 37 265 275 231 291 11 164 169 170 141 227 198
335 344 352 359 5 14 36 50 22 10 355 320 10 10 3 14 338 61 342 94 5 27 78 141 287 13 350 318 340 43 354 125 65 353 355 8 100 53 70 53 123 84 105 359
325 336 346 356 2 16 34 28 8 360 358 356 54 334 318 332 309 83 61 174 90 53 317 290 271 270 263 263 358 5 55 102 59 289 352 3 6 356 301 200 174 155 153 220
313 323 336 350 1 12 23 16 11 2 323 58 32 340 320 331 357 207 3 47 97 241 306 287 279 271 256 222 244 181 120 87 59 236 19 77 242 327 202 108 81 90 61 108
300 308 319 330 347 360 1 13 12 353 314 305 352 347 343 327 1 22 330 14 340 332 357 45 19 346 25 51 40 168 108 115 72 116 164 293 323 339 93 236 239 13 132 128
287 293 300 305 316 334 339 334 359 348 348 252 321 324 347 348 332 348 340 359 359 8 75 63 70 114 306 353 72 73 69 74 112 106 121 186 243 296 2 118 311 178 163 152
273 278 284 285 290 301 315 293 323 324 292 279 237 299 271 347 13 217 321 341 347 8 40 70 68 316 261 57 42 162 44 21 126 134 179 285 256 306 31 87 237 173 173 167
265 266 272 272 271 276 282 281 275 291 274 277 275 259 212 296 288 127 327 2 354 23 56 100 229 89 321 33 305 111 144 120 161 91 79 266 337 22 150 218 152 175 169 176
260 261 263 263 258 261 262 264 256 277 268 267 273 256 268 277 265 263 278 234 264 191 87 85 111 47 37 156 57 342 63 171 185 169 214 264 296 257 248 139 139 145 163 185
257 254 257 257 253 249 249 251 256 278 283 291 271 272 246 258 247 239 216 226 184 138 93 147 150 89 123 114 262 329 337 160 121 72 283 322 58 136 135 132 123 132 143 148
261 253 254 256 249 243 240 241 242 254 266 274 274 257 233 218 261 225 214 171 160 349 187 117 124 162 187 206 217 179 212 146 154 276 272 254 207 185 178 170 169 172 184 200
268 252 248 255 255 238 238 236 233 231 228 270 289 296 264 235 247 212 207 221 240 248 187 118 219 182 135 30 56 257 193 181 153 215 192 198 224 213 198 186 184 184 196 214
254 258 257 258 259 247 227 237 236 228 225 266 310 294 266 224 219 211 212 219 221 210 191 193 207 197 184 148 214 261 226 220 206 158 197 282 263 245 209 202 197 207 232 256
238 245 247 244 246 229 201 201 182 188 187 230 283 280 234 239 220 215 211 201 203 207 181 200 190 185 197 125 213 254 233 208 202 231 284 290 283 213 205 202 205 197 208 198
237 237 248 237 237 237 227 214 187 180 189 223 240 265 310 199 208 185 190 192 194 195 183 162 175 154 185 253 246 259 257 252 253 265 272 266 268 233 197 198 198 193 191 185
236 244 263 279 235 217 219 217 219 213 212 231 195 199 227 359 30 179 166 169 128 179 166 202 154 167 217 231 256 274 294 284 302 296 258 245 233 223 196 196 197 202 198 197
231 242 246 231 202 201 195 200 207 208 213 221 237 209 255 346 41 96 155 176 153 160 224 149 155 240 233 331 301 285 289 285 312 268 241 216 227 235 221 214 214 215 219 214
230 199 227 226 212 197 201 211 211 191 209 193 196 205 202 228 93 211 184 181 160 160 220 156 192 255 345 9 12 18 302 287 285 262 258 264 273 277 243 224 218 225 223 216
204 194 222 212 206 195 208 228 219 219 235 182 186 199 217 229 200 60 219 206 92 228 142 136 187 149 0 13 22 25 24 12 355 254 249 252 253 256 257 229 228 233 224 219
203 228 206 196 194 215 208 187 231 204 190 190 185 176 187 202 200 201 175 218 228 123 154 187 100 5 17 23 27 29 21 10 7 11 15 316 262 239 238 236 242 241 226 219
221 216 200 209 198 237 203 206 279 260 193 186 165 163 157 157 143 199 197 223 217 231 196 126 192 4 7 12 20 22 14 3 359 355 349 332 333 293 237 239 236 242 235 218
236 220 216 221 246 262 271 279 269 251 221 157 155 126 161 153 196 190 177 166 209 29 102 127 42 10 3 0 7 12 14 7 356 351 340 315 301 294 261 233 233 238 235 216
237 234 265 229 262 280 253 255 261 248 208 157 124 119 206 217 219 203 199 194 98 115 167 114 355 7 9 1 360 1 356 1 1 351 344 327 298 280 269 242 230 227 225 213
254 237 251 265 283 273 285 315 289 211 172 232 161 162 201 29 89 216 45 85 133 136 54 345 344 346 351 352 349 349 345 342 349 344 327 321 331 288 248 231 225 219 221 219